Regional Weather Roundup
Issued by NWS

Home | Current Version | Previous Version | Text Only | Print | Product List | Glossary Off
Versions: 1 2 3 4 5 6 7 8 9 10 11 12 13 14 15 16 17 18 19 20 21 22 23 24 25 26 27 28 29 30 31 32 33 34 35 36 37 38 39 40 41 42 43 44 45 46 47 48 49

000
ASUS45 KSLC 130210
RWRUT

UTAH REGIONAL WEATHER ROUNDUP
NATIONAL WEATHER SERVICE SALT LAKE CITY UT
800 PM MDT SAT JUL 12 2014

UTZ001>011-023>025-130300-

NORTHERN UTAH

CITY           SKY/WX    TMP DP  RH WIND       PRES   REMARKS
HILL AFB       NOT AVBL
LOGAN          CLEAR     87  55  33 SW7       30.13R
OGDEN          CLEAR     89  47  23 NW3       30.13R
PROVO AIRPORT  CLEAR     88  55  33 CALM      30.13S
SALT LAKE CITY PTCLDY    91  46  21 N10       30.10S
VERNAL         MOCLDY    86  48  26 N7        30.17S
WENDOVER       MOSUNNY   91  46  21 NE8       30.12R
HEBER CITY     CLEAR     84  52  32 NW3       30.22R

$$

UTZ012>022-026-027-130300-

SOUTHERN UTAH

CITY           SKY/WX    TMP DP  RH WIND       PRES   REMARKS
BRYCE CANYON   MOCLDY    79  45  29 N12       30.35R THUNDER
CEDAR CITY     CLEAR     86  41  20 NW7       30.16S
MILFORD        CLEAR     93  41  16 N13       30.11S
MOAB/CYNLANDS  CLEAR     95  44  17 N15       30.02F HX  91
PRICE          CLEAR     86  49  27 NE12      30.21R
ST GEORGE      NOT AVBL

$$

REGIONAL REPORTS     COLORADO/ARIZONA

CITY           SKY/WX    TMP DP  RH WIND       PRES   REMARKS
CRAIG, CO      CLEAR     75  53  46 NE7       30.25S
GRAND JUNCTION PTCLDY    90  47  22 NE8       30.08S
RIFLE          PTCLDY    85  53  33 N3        30.16R
MONTROSE       PTCLDY    89  46  22 NW9       30.17R
CORTEZ         CLEAR     80  52  37 E5        30.20R
PAGE, AZ       CLEAR     99  39  12 E7        30.01F HX  94
GRAND CANYON   CLEAR     84  42  22 N8        30.24F
KINGMAN        PTCLDY    97  41  14 N9        30.00R HX  92
FLAGSTAFF      CLOUDY    67  56  67 SW10      30.31R

$$

REGIONAL REPORTS    NEVADA/IDAHO/WYOMING

CITY           SKY/WX    TMP DP  RH WIND       PRES   REMARKS
LAS VEGAS, NV  PTSUNNY  103  36  10 CALM      29.85F HX  97
ELY            PTSUNNY   87  41  19 CALM      30.23S
ELKO           MOSUNNY   91  44  19 NE18      30.17R
POCATELLO, ID  SUNNY     85  53  33 NE10      30.18R
BURLEY         MOSUNNY   79  59  50 SW5       30.13S
EVANSTON, WY   PTCLDY    79  48  33 NE7       30.36R
ROCK SPRINGS   CLOUDY    77  42  28 NE23G29   30.33R

$$



USA.gov is the U.S. government's official web portal to all federal, state and local government web resources and services.